Volver al catálogo

SL-8 R/B

ActivoLEO
NORAD 4784·ROCKET BODY·🇷🇺 Russia

Lanzado Dec 2, 1970 desde Plesetsk Cosmodrome

Loading…

Próximos Pases

TLE

Source: Space-Track
1  4784U 70102B   26221.83513161 -.00000058  00000-0 -35904-4 0  9994
2  4784  74.0278 184.1872 0026388 188.3744 183.0550 13.77008891796554

Sigue SL-8 R/B en tiempo real con AllMySat

Download on the App Store